| time (UTC) | temp F | wind direction | speed MPH | gust MPH | rain 1hr in | rain 24hr in | rain mn in | humidity % | barometer mb |
| 20260904171054 | 93 | 167 | 1.0 | 7.0 | 0.00 | 0.00 | 0.00 | 46 | 1009.6 |
| 20260904170553 | 93 | 62 | 3.0 | 7.0 | 0.00 | 0.00 | 0.00 | 46 | 1009.6 |
| 20260904170054 | 92 | 138 | 0.0 | 4.0 | 0.00 | 0.00 | 0.00 | 47 | 1009.6 |
| 20260904165551 | 92 | 115 | 1.0 | 4.0 | 0.00 | 0.00 | 0.00 | 48 | 1009.6 |
| 20260904165049 | 91 | 145 | 0.0 | 8.0 | 0.00 | 0.00 | 0.00 | 48 | 1009.5 |
| 20260904164559 | 91 | 122 | 1.0 | 8.0 | 0.00 | 0.00 | 0.00 | 48 | 1009.5 |
| 20260904164047 | 91 | 34 | 1.0 | 6.0 | 0.00 | 0.00 | 0.00 | 48 | 1009.4 |
| 20260904163546 | 91 | 92 | 2.0 | 6.0 | 0.00 | 0.00 | 0.00 | 48 | 1009.4 |
| 20260904163045 | 91 | 146 | 1.0 | 3.0 | 0.00 | 0.00 | 0.00 | 48 | 1009.4 |
| 20260904162543 | 91 | 272 | 0.0 | 3.0 | 0.00 | 0.00 | 0.00 | 49 | 1009.3 |
| 20260904162041 | 90 | 86 | 1.0 | 5.0 | 0.00 | 0.00 | 0.00 | 50 | 1009.4 |
| 20260904161547 | 90 | 113 | 1.0 | 5.0 | 0.00 | 0.00 | 0.00 | 50 | 1009.4 |
| 20260904161039 | 90 | 76 | 1.0 | 5.0 | 0.00 | 0.00 | 0.00 | 51 | 1009.4 |
| 20260904160537 | 89 | 315 | 0.0 | 3.0 | 0.00 | 0.00 | 0.00 | 51 | 1009.3 |
| 20260904160037 | 89 | 163 | 0.0 | 3.0 | 0.00 | 0.00 | 0.00 | 52 | 1009.3 |
| 20260904155534 | 88 | 158 | 0.0 | 4.0 | 0.00 | 0.00 | 0.00 | 53 | 1009.3 |
| 20260904155034 | 88 | 118 | 0.0 | 4.0 | 0.00 | 0.00 | 0.00 | 54 | 1009.3 |
| 20260904154535 | 88 | 331 | 0.0 | 2.0 | 0.00 | 0.00 | 0.00 | 55 | 1009.3 |
| 20260904154033 | 87 | 346 | 0.0 | 3.0 | 0.00 | 0.00 | 0.00 | 55 | 1009.3 |
| 20260904153530 | 87 | 57 | 1.0 | 3.0 | 0.00 | 0.00 | 0.00 | 56 | 1009.2 |
| 20260904153043 | 87 | 345 | 0.0 | 3.0 | 0.00 | 0.00 | 0.00 | 56 | 1009.2 |
| 20260904152526 | 87 | 70 | 0.0 | 4.0 | 0.00 | 0.00 | 0.00 | 55 | 1009.2 |
| 20260904152025 | 87 | 59 | 1.0 | 4.0 | 0.00 | 0.00 | 0.00 | 55 | 1009.2 |
| 20260904151524 | 87 | 348 | 1.0 | 3.0 | 0.00 | 0.00 | 0.00 | 56 | 1009.2 |
| 20260904151024 | 87 | 59 | 0.0 | 3.0 | 0.00 | 0.00 | 0.00 | 56 | 1009.2 |
| 20260904150521 | 86 | 161 | 0.0 | 3.0 | 0.00 | 0.00 | 0.00 | 56 | 1009.2 |
| 20260904150028 | 86 | 5 | 0.0 | 3.0 | 0.00 | 0.00 | 0.00 | 57 | 1009.2 |
| 20260904145519 | 86 | 52 | 0.0 | 4.0 | 0.00 | 0.00 | 0.00 | 56 | 1009.1 |
| 20260904145018 | 86 | 9 | 1.0 | 4.0 | 0.00 | 0.00 | 0.00 | 55 | 1009.1 |
| 20260904144516 | 86 | 83 | 0.0 | 3.0 | 0.00 | 0.00 | 0.00 | 56 | 1009.1 |
| 20260904144018 | 85 | 73 | 1.0 | 3.0 | 0.00 | 0.00 | 0.00 | 56 | 1009.0 |
| 20260904143513 | 85 | 65 | 1.0 | 3.0 | 0.00 | 0.00 | 0.00 | 56 | 1009.0 |
| 20260904143020 | 85 | 54 | 0.0 | 3.0 | 0.00 | 0.00 | 0.00 | 55 | 1009.0 |
| 20260904142513 | 85 | 49 | 1.0 | 2.0 | 0.00 | 0.00 | 0.00 | 54 | 1008.9 |
| 20260904142008 | 85 | 103 | 0.0 | 2.0 | 0.00 | 0.00 | 0.00 | 54 | 1008.9 |
| 20260904141513 | 84 | 110 | 1.0 | 2.0 | 0.00 | 0.00 | 0.00 | 53 | 1008.8 |
| 20260904141006 | 84 | 84 | 0.0 | 3.0 | 0.00 | 0.00 | 0.00 | 53 | 1008.8 |
| 20260904140505 | 84 | 91 | 1.0 | 3.0 | 0.00 | 0.00 | 0.00 | 54 | 1008.7 |
| 20260904140004 | 83 | 69 | 0.0 | 2.0 | 0.00 | 0.00 | 0.00 | 53 | 1008.6 |
| 20260904135503 | 83 | 40 | 0.0 | 3.0 | 0.00 | 0.00 | 0.00 | 54 | 1008.6 |
| 20260904135001 | 83 | 69 | 1.0 | 3.0 | 0.00 | 0.00 | 0.00 | 54 | 1008.5 |
| 20260904134602 | 83 | 83 | 0.0 | 3.0 | 0.00 | 0.00 | 0.00 | 53 | 1008.3 |
| 20260904134058 | 83 | 46 | 1.0 | 4.0 | 0.00 | 0.00 | 0.00 | 53 | 1008.3 |
| 20260904133559 | 82 | 54 | 2.0 | 4.0 | 0.00 | 0.00 | 0.00 | 53 | 1008.2 |
| 20260904133055 | 82 | 58 | 1.0 | 3.0 | 0.00 | 0.00 | 0.00 | 52 | 1008.2 |
| 20260904132554 | 82 | 38 | 0.0 | 4.0 | 0.00 | 0.00 | 0.00 | 52 | 1008.1 |
| 20260904132053 | 82 | 55 | 1.0 | 6.0 | 0.00 | 0.00 | 0.00 | 51 | 1008.0 |
| 20260904131601 | 82 | 56 | 3.0 | 6.0 | 0.00 | 0.00 | 0.00 | 51 | 1007.9 |
| 20260904131052 | 82 | 49 | 3.0 | 7.0 | 0.00 | 0.00 | 0.00 | 51 | 1007.8 |
| 20260904130549 | 82 | 35 | 3.0 | 7.0 | 0.00 | 0.00 | 0.00 | 51 | 1007.8 |
| 20260904130049 | 82 | 23 | 3.0 | 7.0 | 0.00 | 0.00 | 0.00 | 51 | 1007.7 |
| 20260904125549 | 81 | 47 | 1.0 | 3.0 | 0.00 | 0.00 | 0.00 | 52 | 1007.7 |
| 20260904125048 | 81 | 50 | 0.0 | 3.0 | 0.00 | 0.00 | 0.00 | 52 | 1007.6 |
| 20260904124548 | 81 | 39 | 2.0 | 3.0 | 0.00 | 0.00 | 0.00 | 52 | 1007.5 |
| 20260904124048 | 81 | 47 | 0.0 | 2.0 | 0.00 | 0.00 | 0.00 | 52 | 1007.5 |
| 20260904123546 | 81 | 44 | 0.0 | 2.0 | 0.00 | 0.00 | 0.00 | 52 | 1007.4 |
| 20260904123046 | 81 | 44 | 0.0 | 3.0 | 0.00 | 0.00 | 0.00 | 53 | 1007.3 |
| 20260904122544 | 81 | 24 | 0.0 | 2.0 | 0.00 | 0.00 | 0.00 | 53 | 1007.2 |
| 20260904122044 | 82 | 79 | 0.0 | 2.0 | 0.00 | 0.00 | 0.00 | 53 | 1007.2 |
| 20260904121543 | 82 | 96 | 0.0 | 2.0 | 0.00 | 0.00 | 0.00 | 53 | 1007.3 |
| 20260904121043 | 82 | 259 | 0.0 | 0.0 | 0.00 | 0.00 | 0.00 | 53 | 1007.1 |
| 20260904120542 | 82 | 259 | 0.0 | 0.0 | 0.00 | 0.00 | 0.00 | 52 | 1007.1 |
| 20260904120040 | 83 | 259 | 0.0 | 0.0 | 0.00 | 0.00 | 0.00 | 52 | 1007.1 |
| 20260904115539 | 83 | 259 | 0.0 | 0.0 | 0.00 | 0.00 | 0.00 | 52 | 1007.1 |
| 20260904115038 | 83 | 259 | 0.0 | 0.0 | 0.00 | 0.00 | 0.00 | 53 | 1007.0 |
| 20260904114538 | 83 | 259 | 0.0 | 0.0 | 0.00 | 0.00 | 0.00 | 51 | 1007.1 |
| 20260904114037 | 83 | 259 | 0.0 | 2.0 | 0.00 | 0.00 | 0.00 | 51 | 1007.0 |
| 20260904113540 | 83 | 259 | 0.0 | 2.0 | 0.00 | 0.00 | 0.00 | 51 | 1007.0 |
| 20260904113043 | 83 | 259 | 0.0 | 1.0 | 0.00 | 0.00 | 0.00 | 50 | 1007.0 |
| 20260904112536 | 83 | 259 | 0.0 | 0.0 | 0.00 | 0.00 | 0.00 | 50 | 1007.0 |
| 20260904112035 | 84 | 259 | 0.0 | 2.0 | 0.00 | 0.00 | 0.00 | 49 | 1007.0 |
| 20260904111538 | 84 | 259 | 0.0 | 2.0 | 0.00 | 0.00 | 0.00 | 50 | 1006.9 |
| 20260904111035 | 84 | 222 | 0.0 | 0.0 | 0.00 | 0.00 | 0.00 | 49 | 1006.9 |
| 20260904110534 | 84 | 222 | 0.0 | 0.0 | 0.00 | 0.00 | 0.00 | 49 | 1006.9 |
| 20260904110033 | 84 | 222 | 0.0 | 0.0 | 0.00 | 0.00 | 0.00 | 48 | 1007.0 |
| 20260904105534 | 84 | 222 | 0.0 | 2.0 | 0.00 | 0.00 | 0.00 | 48 | 1006.9 |
| 20260904105033 | 84 | 222 | 0.0 | 2.0 | 0.00 | 0.00 | 0.00 | 48 | 1007.0 |
| 20260904104531 | 85 | 254 | 0.0 | 1.0 | 0.00 | 0.00 | 0.00 | 48 | 1006.9 |
| 20260904104031 | 85 | 254 | 0.0 | 2.0 | 0.00 | 0.00 | 0.00 | 48 | 1006.8 |
| 20260904103529 | 85 | 178 | 0.0 | 2.0 | 0.00 | 0.00 | 0.00 | 46 | 1006.8 |
| 20260904103029 | 85 | 169 | 0.0 | 2.0 | 0.00 | 0.00 | 0.00 | 46 | 1006.7 |
| 20260904102528 | 85 | 219 | 0.0 | 2.0 | 0.00 | 0.00 | 0.00 | 47 | 1006.7 |
| 20260904102027 | 86 | 219 | 0.0 | 2.0 | 0.00 | 0.00 | 0.00 | 46 | 1006.6 |
| 20260904101526 | 86 | 246 | 0.0 | 2.0 | 0.00 | 0.00 | 0.00 | 46 | 1006.6 |
| 20260904101031 | 86 | 244 | 0.0 | 3.0 | 0.00 | 0.00 | 0.00 | 46 | 1006.5 |
| 20260904100529 | 86 | 242 | 1.0 | 3.0 | 0.00 | 0.00 | 0.00 | 46 | 1006.5 |
| 20260904100029 | 86 | 225 | 0.0 | 3.0 | 0.00 | 0.00 | 0.00 | 45 | 1006.5 |
| 20260904095527 | 86 | 248 | 0.0 | 3.0 | 0.00 | 0.00 | 0.00 | 45 | 1006.5 |
| 20260904095027 | 86 | 279 | 0.0 | 3.0 | 0.00 | 0.00 | 0.00 | 45 | 1006.5 |
| 20260904094533 | 86 | 219 | 1.0 | 3.0 | 0.00 | 0.00 | 0.00 | 44 | 1006.5 |
| 20260904094024 | 86 | 256 | 1.0 | 3.0 | 0.00 | 0.00 | 0.00 | 44 | 1006.5 |
| 20260904093524 | 86 | 235 | 0.0 | 6.0 | 0.00 | 0.00 | 0.00 | 44 | 1006.5 |
| 20260904093023 | 86 | 286 | 1.0 | 6.0 | 0.00 | 0.00 | 0.00 | 44 | 1006.5 |
| 20260904092528 | 86 | 278 | 1.0 | 3.0 | 0.00 | 0.00 | 0.00 | 44 | 1006.5 |
| 20260904092022 | 86 | 259 | 1.0 | 3.0 | 0.00 | 0.00 | 0.00 | 43 | 1006.5 |
| 20260904091522 | 87 | 249 | 0.0 | 3.0 | 0.00 | 0.00 | 0.00 | 44 | 1006.5 |
| 20260904091024 | 87 | 237 | 0.0 | 3.0 | 0.00 | 0.00 | 0.00 | 43 | 1006.5 |
| 20260904090521 | 87 | 240 | 1.0 | 3.0 | 0.00 | 0.00 | 0.00 | 43 | 1006.5 |
| 20260904090021 | 87 | 246 | 0.0 | 2.0 | 0.00 | 0.00 | 0.00 | 43 | 1006.5 |
| 20260904085520 | 87 | 278 | 0.0 | 2.0 | 0.00 | 0.00 | 0.00 | 43 | 1006.5 |
| 20260904085022 | 87 | 227 | 0.0 | 6.0 | 0.00 | 0.00 | 0.00 | 42 | 1006.5 |
| 20260904084520 | 87 | 236 | 1.0 | 6.0 | 0.00 | 0.00 | 0.00 | 42 | 1006.5 |
| 20260904084018 | 87 | 244 | 0.0 | 5.0 | 0.00 | 0.00 | 0.00 | 42 | 1006.5 |
| 20260904083519 | 87 | 273 | 1.0 | 5.0 | 0.00 | 0.00 | 0.00 | 41 | 1006.5 |
| 20260904083034 | 88 | 260 | 1.0 | 4.0 | 0.00 | 0.00 | 0.00 | 41 | 1006.6 |
| 20260904082517 | 88 | 255 | 2.0 | 5.0 | 0.00 | 0.00 | 0.00 | 41 | 1006.6 |
| 20260904082017 | 88 | 267 | 1.0 | 5.0 | 0.00 | 0.00 | 0.00 | 41 | 1006.6 |
| 20260904081516 | 88 | 304 | 0.0 | 6.0 | 0.00 | 0.00 | 0.00 | 41 | 1006.6 |
| 20260904081016 | 88 | 257 | 0.0 | 6.0 | 0.00 | 0.00 | 0.00 | 42 | 1006.6 |
| 20260904080516 | 88 | 218 | 1.0 | 5.0 | 0.00 | 0.00 | 0.00 | 41 | 1006.5 |
| 20260904080018 | 88 | 276 | 1.0 | 6.0 | 0.00 | 0.00 | 0.00 | 42 | 1006.6 |
| 20260904075514 | 88 | 250 | 1.0 | 6.0 | 0.00 | 0.00 | 0.00 | 42 | 1006.6 |
| 20260904075014 | 88 | 171 | 2.0 | 6.0 | 0.00 | 0.00 | 0.00 | 41 | 1006.6 |
| 20260904074517 | 88 | 300 | 1.0 | 4.0 | 0.00 | 0.00 | 0.00 | 41 | 1006.6 |
| 20260904074015 | 88 | 250 | 1.0 | 5.0 | 0.00 | 0.00 | 0.00 | 41 | 1006.6 |
| 20260904073514 | 89 | 278 | 2.0 | 5.0 | 0.00 | 0.00 | 0.00 | 41 | 1006.5 |
| 20260904073014 | 89 | 255 | 0.0 | 6.0 | 0.00 | 0.00 | 0.00 | 41 | 1006.6 |
| 20260904072512 | 89 | 260 | 2.0 | 5.0 | 0.00 | 0.00 | 0.00 | 41 | 1006.6 |
| 20260904072015 | 89 | 296 | 2.0 | 5.0 | 0.00 | 0.00 | 0.00 | 41 | 1006.5 |
| 20260904071511 | 89 | 205 | 1.0 | 6.0 | 0.00 | 0.00 | 0.00 | 41 | 1006.5 |
| 20260904071010 | 89 | 294 | 0.0 | 6.0 | 0.00 | 0.00 | 0.00 | 41 | 1006.5 |
| 20260904070513 | 89 | 269 | 1.0 | 7.0 | 0.00 | 0.00 | 0.00 | 41 | 1006.4 |
| 20260904070009 | 89 | 261 | 2.0 | 7.0 | 0.00 | 0.00 | 0.00 | 41 | 1006.4 |
| 20260904065509 | 89 | 240 | 1.0 | 5.0 | 0.00 | 0.00 | 0.00 | 41 | 1006.4 |
| 20260904065009 | 89 | 244 | 2.0 | 5.0 | 0.00 | 0.00 | 0.00 | 41 | 1006.4 |
| 20260904064509 | 90 | 268 | 0.0 | 5.0 | 0.00 | 0.00 | 0.00 | 42 | 1006.2 |
| 20260904064011 | 90 | 274 | 1.0 | 4.0 | 0.00 | 0.00 | 0.00 | 42 | 1006.2 |
| 20260904063508 | 90 | 243 | 1.0 | 8.0 | 0.00 | 0.00 | 0.00 | 41 | 1006.2 |
| 20260904063008 | 90 | 248 | 1.0 | 6.0 | 0.00 | 0.00 | 0.00 | 41 | 1006.2 |
| 20260904062507 | 90 | 276 | 2.0 | 9.0 | 0.00 | 0.00 | 0.00 | 41 | 1006.1 |
| 20260904062007 | 90 | 246 | 3.0 | 9.0 | 0.00 | 0.00 | 0.00 | 41 | 1006.2 |
| 20260904061507 | 90 | 182 | 2.0 | 8.0 | 0.00 | 0.00 | 0.00 | 41 | 1006.2 |
| 20260904061007 | 91 | 238 | 3.0 | 8.0 | 0.00 | 0.00 | 0.00 | 41 | 1006.2 |
| 20260904060509 | 91 | 193 | 1.0 | 5.0 | 0.00 | 0.00 | 0.00 | 41 | 1006.1 |
| 20260904060014 | 91 | 244 | 2.0 | 7.0 | 0.00 | 0.00 | 0.00 | 41 | 1006.1 |
| 20260904055507 | 91 | 191 | 2.0 | 8.0 | 0.00 | 0.00 | 0.00 | 41 | 1006.0 |
| 20260904055007 | 91 | 267 | 1.0 | 9.0 | 0.00 | 0.00 | 0.00 | 41 | 1005.9 |
| 20260904054510 | 91 | 216 | 2.0 | 6.0 | 0.00 | 0.00 | 0.00 | 41 | 1005.9 |
| 20260904054009 | 91 | 266 | 1.0 | 6.0 | 0.00 | 0.00 | 0.00 | 40 | 1005.9 |
| 20260904053510 | 92 | 283 | 1.0 | 6.0 | 0.00 | 0.00 | 0.00 | 40 | 1005.9 |
| 20260904053013 | 92 | 277 | 3.0 | 9.0 | 0.00 | 0.00 | 0.00 | 40 | 1005.9 |
| 20260904052507 | 92 | 201 | 2.0 | 9.0 | 0.00 | 0.00 | 0.00 | 39 | 1005.8 |
| 20260904052009 | 92 | 244 | 3.0 | 9.0 | 0.00 | 0.00 | 0.00 | 39 | 1005.8 |
| 20260904051511 | 92 | 259 | 3.0 | 8.0 | 0.00 | 0.00 | 0.00 | 39 | 1005.8 |
| 20260904051005 | 92 | 223 | 3.0 | 6.0 | 0.00 | 0.00 | 0.00 | 39 | 1005.8 |
| 20260904050504 | 92 | 267 | 1.0 | 4.0 | 0.00 | 0.00 | 0.00 | 39 | 1005.8 |
| 20260904050017 | 92 | 281 | 2.0 | 7.0 | 0.00 | 0.00 | 0.00 | 39 | 1005.8 |
| 20260904045505 | 92 | 271 | 3.0 | 7.0 | 0.00 | 0.00 | 0.00 | 38 | 1005.8 |
| 20260904045005 | 93 | 247 | 2.0 | 7.0 | 0.00 | 0.00 | 0.00 | 38 | 1005.8 |
| 20260904044512 | 93 | 215 | 1.0 | 6.0 | 0.00 | 0.00 | 0.00 | 38 | 1005.7 |
| 20260904044003 | 93 | 300 | 1.0 | 6.0 | 0.00 | 0.00 | 0.00 | 39 | 1005.8 |
| 20260904043503 | 93 | 267 | 2.0 | 7.0 | 0.00 | 0.00 | 0.00 | 38 | 1005.7 |
| 20260904043009 | 93 | 279 | 2.0 | 7.0 | 0.00 | 0.00 | 0.00 | 38 | 1005.7 |
| 20260904042503 | 93 | 205 | 1.0 | 6.0 | 0.00 | 0.00 | 0.00 | 39 | 1005.6 |
| 20260904042002 | 93 | 242 | 2.0 | 6.0 | 0.00 | 0.00 | 0.00 | 39 | 1005.6 |
| 20260904041505 | 93 | 234 | 2.0 | 5.0 | 0.00 | 0.00 | 0.00 | 39 | 1005.6 |
| 20260904041003 | 93 | 219 | 1.0 | 11.0 | 0.00 | 0.00 | 0.00 | 39 | 1005.5 |
| 20260904040504 | 94 | 223 | 2.0 | 11.0 | 0.00 | 0.00 | 0.00 | 39 | 1005.5 |
| 20260904040007 | 94 | 247 | 3.0 | 13.0 | 0.00 | 0.00 | 0.00 | 39 | 1005.4 |
| 20260904035503 | 94 | 252 | 4.0 | 13.0 | 0.00 | 0.00 | 0.00 | 39 | 1005.3 |
| 20260904035003 | 94 | 188 | 2.0 | 9.0 | 0.00 | 0.00 | 0.00 | 38 | 1005.2 |
| 20260904034503 | 94 | 230 | 2.0 | 7.0 | 0.00 | 0.00 | 0.00 | 38 | 1005.2 |
| 20260904034002 | 94 | 261 | 1.0 | 7.0 | 0.00 | 0.00 | 0.00 | 38 | 1005.1 |
| 20260904033505 | 94 | 238 | 1.0 | 7.0 | 0.00 | 0.00 | 0.00 | 38 | 1005.1 |
| 20260904033010 | 94 | 173 | 2.0 | 7.0 | 0.00 | 0.00 | 0.00 | 37 | 1005.0 |
| 20260904032502 | 94 | 218 | 2.0 | 9.0 | 0.00 | 0.00 | 0.00 | 37 | 1004.9 |
| 20260904032001 | 94 | 252 | 1.0 | 10.0 | 0.00 | 0.00 | 0.00 | 37 | 1004.9 |
| 20260904031501 | 94 | 273 | 3.0 | 10.0 | 0.00 | 0.00 | 0.00 | 37 | 1004.8 |
| 20260904031001 | 95 | 248 | 2.0 | 8.0 | 0.00 | 0.00 | 0.00 | 36 | 1004.7 |
| 20260904030503 | 95 | 298 | 1.0 | 8.0 | 0.00 | 0.00 | 0.00 | 36 | 1004.6 |
| 20260904030001 | 95 | 254 | 2.0 | 7.0 | 0.00 | 0.00 | 0.00 | 35 | 1004.6 |
| 20260904025501 | 95 | 259 | 2.0 | 6.0 | 0.00 | 0.00 | 0.00 | 35 | 1004.6 |
| 20260904025002 | 95 | 267 | 3.0 | 6.0 | 0.00 | 0.00 | 0.00 | 34 | 1004.5 |
| 20260904024501 | 95 | 247 | 2.0 | 6.0 | 0.00 | 0.00 | 0.00 | 34 | 1004.5 |
| 20260904024000 | 95 | 219 | 1.0 | 5.0 | 0.00 | 0.00 | 0.00 | 34 | 1004.4 |
| 20260904023501 | 95 | 225 | 1.0 | 6.0 | 0.00 | 0.00 | 0.00 | 34 | 1004.3 |
| 20260904023106 | 95 | 267 | 2.0 | 6.0 | 0.00 | 0.00 | 0.00 | 34 | 1004.4 |
| 20260904022600 | 95 | 277 | 3.0 | 7.0 | 0.00 | 0.00 | 0.00 | 34 | 1004.3 |
| 20260904022100 | 96 | 277 | 3.0 | 7.0 | 0.00 | 0.00 | 0.00 | 34 | 1004.3 |
| 20260904021604 | 96 | 272 | 1.0 | 6.0 | 0.00 | 0.00 | 0.00 | 33 | 1004.2 |
| 20260904021059 | 96 | 194 | 2.0 | 6.0 | 0.00 | 0.00 | 0.00 | 33 | 1004.2 |
| 20260904020600 | 96 | 175 | 2.0 | 6.0 | 0.00 | 0.00 | 0.00 | 32 | 1004.1 |
| 20260904020104 | 96 | 247 | 2.0 | 6.0 | 0.00 | 0.00 | 0.00 | 33 | 1004.1 |
| 20260904015559 | 96 | 262 | 2.0 | 10.0 | 0.00 | 0.00 | 0.00 | 32 | 1004.1 |
| 20260904015058 | 97 | 265 | 3.0 | 10.0 | 0.00 | 0.00 | 0.00 | 32 | 1004.1 |
| 20260904014619 | 97 | 288 | 3.0 | 8.0 | 0.00 | 0.00 | 0.00 | 32 | 1004.1 |
| 20260904014101 | 97 | 243 | 2.0 | 11.0 | 0.00 | 0.00 | 0.00 | 31 | 1004.0 |
| 20260904013558 | 97 | 214 | 3.0 | 11.0 | 0.00 | 0.00 | 0.00 | 30 | 1004.0 |
| 20260904013119 | 97 | 250 | 3.0 | 9.0 | 0.00 | 0.00 | 0.00 | 30 | 1004.0 |
| 20260904012557 | 98 | 205 | 3.0 | 11.0 | 0.00 | 0.00 | 0.00 | 29 | 1004.0 |
| 20260904012057 | 98 | 263 | 4.0 | 11.0 | 0.00 | 0.00 | 0.00 | 30 | 1004.0 |
| 20260904011558 | 98 | 210 | 2.0 | 9.0 | 0.00 | 0.00 | 0.00 | 30 | 1004.0 |
| 20260904011057 | 99 | 269 | 3.0 | 9.0 | 0.00 | 0.00 | 0.00 | 28 | 1004.0 |
| 20260904010557 | 99 | 261 | 3.0 | 6.0 | 0.00 | 0.00 | 0.00 | 28 | 1004.0 |
| 20260904010113 | 99 | 219 | 2.0 | 8.0 | 0.00 | 0.00 | 0.00 | 27 | 1004.0 |
| 20260904010027 | 99 | 288 | 1.0 | 8.0 | 0.00 | 0.00 | 0.00 | 27 | 1004.0 |
| 20260904005556 | 99 | 216 | 3.0 | 8.0 | 0.00 | 0.00 | 0.00 | 27 | 1004.0 |
| 20260904005058 | 100 | 220 | 2.0 | 8.0 | 0.00 | 0.00 | 0.00 | 26 | 1004.1 |
| 20260904004556 | 99 | 254 | 2.0 | 7.0 | 0.00 | 0.00 | 0.00 | 26 | 1004.0 |
| 20260904004055 | 99 | 249 | 3.0 | 7.0 | 0.00 | 0.00 | 0.00 | 26 | 1004.0 |
| 20260904003556 | 100 | 216 | 3.0 | 7.0 | 0.00 | 0.00 | 0.00 | 26 | 1004.0 |
| 20260904003110 | 100 | 211 | 2.0 | 7.0 | 0.00 | 0.00 | 0.00 | 26 | 1004.0 |
| 20260904002555 | 100 | 223 | 2.0 | 7.0 | 0.00 | 0.00 | 0.00 | 26 | 1004.0 |
| 20260904002055 | 100 | 304 | 3.0 | 7.0 | 0.00 | 0.00 | 0.00 | 26 | 1004.0 |
| 20260904001555 | 101 | 229 | 2.0 | 9.0 | 0.00 | 0.00 | 0.00 | 27 | 1004.0 |
| 20260904001055 | 101 | 300 | 6.0 | 9.0 | 0.00 | 0.00 | 0.00 | 27 | 1004.0 |
| 20260904000554 | 101 | 259 | 3.0 | 7.0 | 0.00 | 0.00 | 0.00 | 27 | 1004.1 |
| 20260904000054 | 101 | 269 | 3.0 | 7.0 | 0.00 | 0.00 | 0.00 | 26 | 1004.2 |
| 20260903235553 | 100 | 196 | 3.0 | 7.0 | 0.00 | 0.00 | 0.00 | 27 | 1004.1 |
| 20260903235053 | 100 | 224 | 3.0 | 9.0 | 0.00 | 0.00 | 0.00 | 27 | 1004.2 |
| 20260903234553 | 100 | 257 | 2.0 | 9.0 | 0.00 | 0.00 | 0.00 | 27 | 1004.2 |
| 20260903234054 | 101 | 179 | 2.0 | 9.0 | 0.00 | 0.00 | 0.00 | 27 | 1004.2 |
| 20260903233551 | 101 | 269 | 3.0 | 8.0 | 0.00 | 0.00 | 0.00 | 27 | 1004.3 |
| 20260903233058 | 101 | 258 | 3.0 | 7.0 | 0.00 | 0.00 | 0.00 | 27 | 1004.3 |
| 20260903232550 | 102 | 217 | 2.0 | 8.0 | 0.00 | 0.00 | 0.00 | 27 | 1004.3 |
| 20260903232050 | 102 | 286 | 3.0 | 8.0 | 0.00 | 0.00 | 0.00 | 26 | 1004.4 |
| 20260903231550 | 103 | 253 | 2.0 | 8.0 | 0.00 | 0.00 | 0.00 | 26 | 1004.4 |
| 20260903231049 | 104 | 277 | 4.0 | 8.0 | 0.00 | 0.00 | 0.00 | 26 | 1004.5 |
| 20260903230549 | 104 | 231 | 1.0 | 7.0 | 0.00 | 0.00 | 0.00 | 26 | 1004.4 |
| 20260903230050 | 103 | 292 | 0.0 | 7.0 | 0.00 | 0.00 | 0.00 | 27 | 1004.6 |
| 20260903225548 | 103 | 202 | 0.0 | 7.0 | 0.00 | 0.00 | 0.00 | 27 | 1004.6 |
| 20260903225047 | 103 | 178 | 2.0 | 7.0 | 0.00 | 0.00 | 0.00 | 26 | 1004.6 |
| 20260903224546 | 103 | 123 | 1.0 | 9.0 | 0.00 | 0.00 | 0.00 | 27 | 1004.7 |
| 20260903224046 | 103 | 173 | 2.0 | 9.0 | 0.00 | 0.00 | 0.00 | 27 | 1004.8 |
| 20260903223545 | 103 | 119 | 2.0 | 8.0 | 0.00 | 0.00 | 0.00 | 27 | 1004.8 |
| 20260903223055 | 103 | 207 | 1.0 | 5.0 | 0.00 | 0.00 | 0.00 | 28 | 1004.8 |
| 20260903222544 | 102 | 178 | 2.0 | 5.0 | 0.00 | 0.00 | 0.00 | 27 | 1004.9 |
| 20260903222041 | 101 | 215 | 1.0 | 5.0 | 0.00 | 0.00 | 0.00 | 28 | 1005.0 |
| 20260903221542 | 100 | 315 | 0.0 | 7.0 | 0.00 | 0.00 | 0.00 | 30 | 1005.2 |
| 20260903221042 | 100 | 310 | 2.0 | 7.0 | 0.00 | 0.00 | 0.00 | 30 | 1005.2 |
| 20260903220540 | 100 | 303 | 2.0 | 6.0 | 0.00 | 0.00 | 0.00 | 30 | 1005.4 |
| 20260903220039 | 101 | 224 | 2.0 | 6.0 | 0.00 | 0.00 | 0.00 | 29 | 1005.4 |
| 20260903215542 | 101 | 190 | 1.0 | 6.0 | 0.00 | 0.00 | 0.00 | 29 | 1005.5 |
| 20260903215037 | 102 | 28 | 1.0 | 6.0 | 0.00 | 0.00 | 0.00 | 28 | 1005.7 |
| 20260903214541 | 102 | 277 | 2.0 | 5.0 | 0.00 | 0.00 | 0.00 | 28 | 1005.6 |
| 20260903214037 | 102 | 278 | 2.0 | 5.0 | 0.00 | 0.00 | 0.00 | 28 | 1005.8 |
| 20260903213536 | 102 | 80 | 1.0 | 8.0 | 0.00 | 0.00 | 0.00 | 28 | 1005.8 |
| 20260903213042 | 102 | 178 | 2.0 | 8.0 | 0.00 | 0.00 | 0.00 | 28 | 1005.9 |
| 20260903212534 | 102 | 180 | 1.0 | 6.0 | 0.00 | 0.00 | 0.00 | 28 | 1006.1 |
| 20260903212034 | 102 | 200 | 1.0 | 11.0 | 0.00 | 0.00 | 0.00 | 29 | 1006.1 |
| 20260903211539 | 102 | 224 | 3.0 | 11.0 | 0.00 | 0.00 | 0.00 | 28 | 1006.2 |
| 20260903211033 | 102 | 97 | 3.0 | 6.0 | 0.00 | 0.00 | 0.00 | 28 | 1006.2 |
| 20260903210532 | 102 | 209 | 2.0 | 6.0 | 0.00 | 0.00 | 0.00 | 29 | 1006.3 |
| 20260903210031 | 101 | 234 | 2.0 | 7.0 | 0.00 | 0.00 | 0.00 | 29 | 1006.4 |
| 20260903205532 | 100 | 192 | 2.0 | 10.0 | 0.00 | 0.00 | 0.00 | 30 | 1006.5 |
| 20260903205028 | 101 | 88 | 3.0 | 10.0 | 0.00 | 0.00 | 0.00 | 29 | 1006.6 |
| 20260903204528 | 100 | 135 | 1.0 | 9.0 | 0.00 | 0.00 | 0.00 | 30 | 1006.6 |
| 20260903204031 | 100 | 213 | 2.0 | 9.0 | 0.00 | 0.00 | 0.00 | 30 | 1006.7 |
| 20260903203527 | 100 | 143 | 2.0 | 6.0 | 0.00 | 0.00 | 0.00 | 31 | 1006.8 |
| 20260903203031 | 100 | 246 | 2.0 | 6.0 | 0.00 | 0.00 | 0.00 | 31 | 1006.8 |
| 20260903202525 | 100 | 115 | 1.0 | 6.0 | 0.00 | 0.00 | 0.00 | 30 | 1006.9 |
| 20260903202025 | 101 | 210 | 2.0 | 4.0 | 0.00 | 0.00 | 0.00 | 30 | 1007.1 |
| 20260903201525 | 101 | 199 | 0.0 | 8.0 | 0.00 | 0.00 | 0.00 | 30 | 1007.1 |
| 20260903201024 | 100 | 175 | 2.0 | 8.0 | 0.00 | 0.00 | 0.00 | 30 | 1007.2 |
| 20260903200523 | 100 | 207 | 1.0 | 4.0 | 0.00 | 0.00 | 0.00 | 31 | 1007.2 |
| 20260903200021 | 99 | 259 | 1.0 | 5.0 | 0.00 | 0.00 | 0.00 | 32 | 1007.3 |
| 20260903195521 | 99 | 174 | 2.0 | 6.0 | 0.00 | 0.00 | 0.00 | 32 | 1007.4 |
| 20260903195020 | 98 | 228 | 0.0 | 6.0 | 0.00 | 0.00 | 0.00 | 33 | 1007.5 |
| 20260903194519 | 99 | 119 | 2.0 | 4.0 | 0.00 | 0.00 | 0.00 | 31 | 1007.5 |
| 20260903194017 | 99 | 155 | 1.0 | 4.0 | 0.00 | 0.00 | 0.00 | 32 | 1007.6 |
| 20260903193516 | 98 | 148 | 0.0 | 8.0 | 0.00 | 0.00 | 0.00 | 34 | 1007.6 |
| 20260903193016 | 97 | 154 | 2.0 | 8.0 | 0.00 | 0.00 | 0.00 | 33 | 1007.7 |
| 20260903192514 | 97 | 136 | 2.0 | 10.0 | 0.00 | 0.00 | 0.00 | 33 | 1007.8 |
| 20260903192012 | 98 | 139 | 4.0 | 10.0 | 0.00 | 0.00 | 0.00 | 32 | 1007.9 |
| 20260903191523 | 98 | 192 | 2.0 | 8.0 | 0.00 | 0.00 | 0.00 | 33 | 1008.1 |
| 20260903191012 | 98 | 215 | 0.0 | 8.0 | 0.00 | 0.00 | 0.00 | 33 | 1008.1 |
| 20260903190511 | 98 | 157 | 3.0 | 7.0 | 0.00 | 0.00 | 0.00 | 32 | 1008.2 |
| 20260903190012 | 98 | 171 | 2.0 | 7.0 | 0.00 | 0.00 | 0.00 | 33 | 1008.3 |
| 20260903185509 | 97 | 120 | 1.0 | 5.0 | 0.00 | 0.00 | 0.00 | 33 | 1008.4 |
| 20260903185009 | 97 | 104 | 1.0 | 5.0 | 0.00 | 0.00 | 0.00 | 33 | 1008.5 |
| 20260903184509 | 97 | 205 | 0.0 | 6.0 | 0.00 | 0.00 | 0.00 | 35 | 1008.6 |
| 20260903184009 | 97 | 279 | 2.0 | 6.0 | 0.00 | 0.00 | 0.00 | 34 | 1008.6 |
| 20260903183507 | 97 | 221 | 1.0 | 10.0 | 0.00 | 0.00 | 0.00 | 35 | 1008.7 |
| 20260903183007 | 97 | 169 | 2.0 | 10.0 | 0.00 | 0.00 | 0.00 | 35 | 1008.8 |
| 20260903182505 | 97 | 158 | 2.0 | 6.0 | 0.00 | 0.00 | 0.00 | 34 | 1008.8 |
| 20260903182005 | 96 | 112 | 2.0 | 6.0 | 0.00 | 0.00 | 0.00 | 33 | 1008.9 |
| 20260903181503 | 96 | 85 | 1.0 | 5.0 | 0.00 | 0.00 | 0.00 | 34 | 1008.9 |
| 20260903181004 | 96 | 271 | 1.0 | 5.0 | 0.00 | 0.00 | 0.00 | 35 | 1009.0 |
| 20260903180501 | 96 | 186 | 1.0 | 6.0 | 0.00 | 0.00 | 0.00 | 37 | 1009.2 |
| 20260903180100 | 96 | 200 | 1.0 | 6.0 | 0.00 | 0.00 | 0.00 | 37 | 1009.2 |
| 20260903175558 | 96 | 201 | 2.0 | 5.0 | 0.00 | 0.00 | 0.00 | 38 | 1009.3 |
| 20260903175057 | 96 | 192 | 2.0 | 6.0 | 0.00 | 0.00 | 0.00 | 36 | 1009.4 |
| 20260903174556 | 95 | 169 | 1.0 | 6.0 | 0.00 | 0.00 | 0.00 | 38 | 1009.3 |
| 20260903174055 | 95 | 225 | 1.0 | 4.0 | 0.00 | 0.00 | 0.00 | 38 | 1009.4 |
| 20260903173553 | 94 | 218 | 1.0 | 3.0 | 0.00 | 0.00 | 0.00 | 39 | 1009.4 |
| 20260903173055 | 94 | 192 | 0.0 | 5.0 | 0.00 | 0.00 | 0.00 | 41 | 1009.5 |
| 20260903172551 | 94 | 274 | 1.0 | 5.0 | 0.00 | 0.00 | 0.00 | 41 | 1009.5 |
| 20260903172051 | 94 | 70 | 0.0 | 5.0 | 0.00 | 0.00 | 0.00 | 42 | 1009.5 |
| 20260903171559 | 94 | 172 | 1.0 | 5.0 | 0.00 | 0.00 | 0.00 | 42 | 1009.4 |